Time,TemperatureF,DewpointF,PressureIn,WindDirection,WindDirectionDegrees,WindSpeedMPH,WindSpeedGustMPH,Humidity,HourlyPrecipIn,Conditions,Clouds,dailyrainin,SoftwareType,DateUTC
2013-01-17 00:00:00,41.9,40.6,29.42,SE,135,1.1,1.1,95,0.00,,,0.19,WUHU216HW,2013-01-17 05:00:00,
2013-01-17 00:02:00,42.1,40.8,29.42,SE,135,1.8,1.8,95,0.00,,,0.00,WUHU216HW,2013-01-17 05:02:00,
2013-01-17 00:03:00,42.1,40.8,29.42,SE,135,1.8,1.8,95,0.00,,,0.00,WUHU216HW,2013-01-17 05:03:00,
2013-01-17 00:08:00,42.1,40.8,29.41,ESE,113,1.1,1.8,95,0.00,,,0.00,WUHU216HW,2013-01-17 05:08:00,
2013-01-17 00:13:00,42.1,40.8,29.41,ESE,113,2.7,2.9,95,0.00,,,0.00,WUHU216HW,2013-01-17 05:13:00,
2013-01-17 00:18:00,42.3,41.0,29.42,ESE,113,2.9,2.9,95,0.00,,,0.00,WUHU216HW,2013-01-17 05:18:00,
2013-01-17 00:23:00,42.5,41.1,29.41,ESE,113,0.4,2.9,95,0.00,,,0.00,WUHU216HW,2013-01-17 05:23:00,
2013-01-17 00:28:00,42.5,41.1,29.41,SE,135,1.6,1.6,95,0.00,,,0.00,WUHU216HW,2013-01-17 05:28:00,
2013-01-17 00:33:00,42.7,41.3,29.41,SE,135,0.9,1.6,95,0.00,,,0.00,WUHU216HW,2013-01-17 05:33:00,
2013-01-17 00:38:00,42.8,41.5,29.42,SE,135,1.6,1.8,95,0.00,,,0.00,WUHU216HW,2013-01-17 05:38:00,
2013-01-17 00:43:00,42.8,41.5,29.43,SE,135,1.3,2.0,95,0.00,,,0.00,WUHU216HW,2013-01-17 05:43:00,
2013-01-17 00:48:00,43.0,41.7,29.43,ESE,113,2.0,2.0,95,0.00,,,0.00,WUHU216HW,2013-01-17 05:48:00,
2013-01-17 00:53:00,43.2,41.9,29.43,ESE,113,1.6,2.0,95,0.00,,,0.00,WUHU216HW,2013-01-17 05:53:00,
2013-01-17 00:58:00,43.2,41.9,29.43,SE,135,1.1,2.7,95,0.00,,,0.00,WUHU216HW,2013-01-17 05:58:00,
2013-01-17 01:03:00,43.2,41.9,29.42,SE,135,1.6,2.7,95,0.00,,,0.00,WUHU216HW,2013-01-17 06:03:00,
2013-01-17 01:08:00,43.2,41.9,29.42,SE,135,1.1,1.8,95,0.00,,,0.00,WUHU216HW,2013-01-17 06:08:00,
2013-01-17 01:13:00,43.4,42.0,29.43,WSW,248,1.8,2.0,95,0.00,,,0.00,WUHU216HW,2013-01-17 06:13:00,
2013-01-17 01:18:00,43.4,42.0,29.43,SSW,203,2.7,2.7,95,0.00,,,0.00,WUHU216HW,2013-01-17 06:18:00,
2013-01-17 01:23:00,43.6,42.2,29.43,SSW,203,3.1,3.1,95,0.00,,,0.00,WUHU216HW,2013-01-17 06:23:00,
2013-01-17 01:28:00,43.6,42.2,29.43,SSW,203,3.4,3.6,95,0.00,,,0.00,WUHU216HW,2013-01-17 06:28:00,
2013-01-17 01:33:00,43.7,42.4,29.43,SSW,203,4.0,4.7,95,0.00,,,0.00,WUHU216HW,2013-01-17 06:33:00,
2013-01-17 01:38:00,43.7,42.4,29.43,SW,225,3.1,4.7,95,0.00,,,0.00,WUHU216HW,2013-01-17 06:38:00,
2013-01-17 01:43:00,44.1,42.8,29.42,SW,225,3.1,4.7,95,0.00,,,0.00,WUHU216HW,2013-01-17 06:43:00,
2013-01-17 01:48:00,44.3,42.9,29.44,SW,225,4.7,4.7,95,0.00,,,0.00,WUHU216HW,2013-01-17 06:48:00,
2013-01-17 01:53:00,44.3,42.7,29.44,SW,225,4.0,4.7,94,0.00,,,0.00,WUHU216HW,2013-01-17 06:53:00,
2013-01-17 01:58:00,44.5,43.1,29.44,SW,225,4.0,4.7,95,0.00,,,0.00,WUHU216HW,2013-01-17 06:58:00,
2013-01-17 02:03:00,44.5,42.8,29.44,SSW,203,2.9,4.0,94,0.00,,,0.00,WUHU216HW,2013-01-17 07:03:00,
2013-01-17 02:08:00,44.5,42.8,29.44,WSW,248,4.0,4.0,94,0.00,,,0.00,WUHU216HW,2013-01-17 07:08:00,
2013-01-17 02:13:00,44.6,43.0,29.44,SW,225,3.1,4.0,94,0.00,,,0.00,WUHU216HW,2013-01-17 07:13:00,
2013-01-17 02:18:00,44.6,43.0,29.43,WSW,248,4.7,4.7,94,0.00,,,0.00,WUHU216HW,2013-01-17 07:18:00,
2013-01-17 02:23:00,44.6,43.0,29.43,SW,225,4.0,4.7,94,0.00,,,0.00,WUHU216HW,2013-01-17 07:23:00,
2013-01-17 02:28:00,44.6,42.8,29.43,SW,225,3.4,4.7,93,0.00,,,0.00,WUHU216HW,2013-01-17 07:28:00,
2013-01-17 02:33:00,44.6,42.8,29.43,SW,225,2.7,4.0,93,0.00,,,0.00,WUHU216HW,2013-01-17 07:33:00,
2013-01-17 02:38:00,44.6,42.8,29.43,SSW,203,2.2,3.4,93,0.00,,,0.00,WUHU216HW,2013-01-17 07:38:00,
2013-01-17 02:43:00,44.5,42.8,29.43,North,0,0.4,2.7,94,0.00,,,0.00,WUHU216HW,2013-01-17 07:43:00,
2013-01-17 02:48:00,44.1,42.5,29.43,NNW,338,0.4,2.7,94,0.00,,,0.00,WUHU216HW,2013-01-17 07:48:00,
2013-01-17 02:53:00,43.7,42.1,29.43,NNE,23,2.5,2.7,94,0.00,,,0.00,WUHU216HW,2013-01-17 07:53:00,
2013-01-17 02:58:00,43.7,42.1,29.43,NNW,338,3.1,3.1,94,0.00,,,0.00,WUHU216HW,2013-01-17 07:58:00,
2013-01-17 03:03:00,43.7,42.1,29.44,NW,315,3.1,3.1,94,0.00,,,0.00,WUHU216HW,2013-01-17 08:03:00,
2013-01-17 03:08:00,43.6,41.7,29.45,NW,315,1.6,3.1,93,0.00,,,0.00,WUHU216HW,2013-01-17 08:08:00,
2013-01-17 03:13:00,43.6,41.9,29.44,North,0,0.9,2.5,94,0.00,,,0.00,WUHU216HW,2013-01-17 08:13:00,
2013-01-17 03:18:00,43.6,41.9,29.45,North,0,1.1,1.6,94,0.00,,,0.00,WUHU216HW,2013-01-17 08:18:00,
2013-01-17 03:23:00,43.6,41.9,29.44,NNW,338,0.7,1.1,94,0.00,,,0.00,WUHU216HW,2013-01-17 08:23:00,
2013-01-17 03:28:00,43.4,41.8,29.44,NNW,338,1.8,1.8,94,0.00,,,0.00,WUHU216HW,2013-01-17 08:28:00,
2013-01-17 03:33:00,43.4,41.8,29.45,NNW,338,0.0,1.8,94,0.00,,,0.00,WUHU216HW,2013-01-17 08:33:00,
2013-01-17 03:38:00,43.2,41.6,29.44,North,0,0.4,1.8,94,0.00,,,0.00,WUHU216HW,2013-01-17 08:38:00,
2013-01-17 03:43:00,43.2,41.6,29.44,ENE,68,0.0,0.9,94,0.00,,,0.00,WUHU216HW,2013-01-17 08:43:00,
2013-01-17 03:48:00,43.2,41.6,29.44,SE,135,0.0,0.9,94,0.00,,,0.00,WUHU216HW,2013-01-17 08:48:00,
2013-01-17 03:53:00,43.0,41.4,29.44,SE,135,0.0,0.9,94,0.00,,,0.00,WUHU216HW,2013-01-17 08:53:00,
2013-01-17 03:58:00,42.8,41.5,29.45,North,0,1.8,2.0,95,0.00,,,0.00,WUHU216HW,2013-01-17 08:58:00,
2013-01-17 04:03:00,42.8,41.5,29.45,North,0,0.4,2.0,95,0.00,,,0.00,WUHU216HW,2013-01-17 09:03:00,
2013-01-17 04:08:00,42.8,41.5,29.46,North,0,0.7,3.8,95,0.00,,,0.00,WUHU216HW,2013-01-17 09:08:00,
2013-01-17 04:13:00,42.8,41.5,29.46,NNE,23,2.2,3.8,95,0.00,,,0.00,WUHU216HW,2013-01-17 09:13:00,
2013-01-17 04:18:00,42.8,41.5,29.46,NNE,23,2.5,2.5,95,0.00,,,0.00,WUHU216HW,2013-01-17 09:18:00,
2013-01-17 04:23:00,42.8,41.5,29.46,NE,45,2.5,2.7,95,0.00,,,0.00,WUHU216HW,2013-01-17 09:23:00,
2013-01-17 04:28:00,42.8,41.5,29.47,WNW,293,0.4,2.7,95,0.00,,,0.00,WUHU216HW,2013-01-17 09:28:00,
2013-01-17 04:33:00,42.8,41.5,29.46,NE,45,4.5,4.5,95,0.00,,,0.00,WUHU216HW,2013-01-17 09:33:00,
2013-01-17 04:38:00,42.8,41.5,29.46,NW,315,2.5,4.5,95,0.00,,,0.00,WUHU216HW,2013-01-17 09:38:00,
2013-01-17 04:43:00,42.8,41.5,29.46,NW,315,0.2,4.5,95,0.00,,,0.00,WUHU216HW,2013-01-17 09:43:00,
2013-01-17 04:48:00,42.7,41.3,29.47,NW,315,2.5,2.5,95,0.00,,,0.00,WUHU216HW,2013-01-17 09:48:00,
2013-01-17 04:53:00,42.7,41.3,29.46,North,0,1.6,2.5,95,0.00,,,0.00,WUHU216HW,2013-01-17 09:53:00,
2013-01-17 04:58:00,42.5,41.1,29.45,North,0,1.1,2.5,95,0.00,,,0.00,WUHU216HW,2013-01-17 09:58:00,
2013-01-17 05:03:00,42.5,41.1,29.46,WNW,293,0.4,1.6,95,0.00,,,0.00,WUHU216HW,2013-01-17 10:03:00,
2013-01-17 05:08:00,42.5,41.1,29.46,NNW,338,0.0,1.1,95,0.00,,,0.00,WUHU216HW,2013-01-17 10:08:00,
2013-01-17 05:13:00,42.7,41.3,29.47,WSW,248,2.0,2.0,95,0.00,,,0.00,WUHU216HW,2013-01-17 10:13:00,
2013-01-17 05:18:00,42.5,41.1,29.45,SSW,203,0.0,2.0,95,0.00,,,0.00,WUHU216HW,2013-01-17 10:18:00,
2013-01-17 05:23:00,42.5,41.1,29.44,SE,135,0.9,2.0,95,0.00,,,0.00,WUHU216HW,2013-01-17 10:23:00,
2013-01-17 05:28:00,42.5,41.1,29.45,West,270,1.8,2.0,95,0.00,,,0.00,WUHU216HW,2013-01-17 10:28:00,
2013-01-17 05:33:00,42.3,41.0,29.45,WNW,293,0.0,2.0,95,0.00,,,0.00,WUHU216HW,2013-01-17 10:33:00,
2013-01-17 05:38:00,42.3,41.0,29.45,WNW,293,0.0,1.8,95,0.00,,,0.00,WUHU216HW,2013-01-17 10:38:00,
2013-01-17 05:43:00,42.1,40.8,29.45,SE,135,1.1,1.1,95,0.00,,,0.00,WUHU216HW,2013-01-17 10:43:00,
2013-01-17 05:48:00,42.1,40.8,29.47,SW,225,1.3,1.3,95,0.00,,,0.00,WUHU216HW,2013-01-17 10:48:00,
2013-01-17 05:53:00,42.1,40.8,29.46,SSW,203,0.9,1.3,95,0.00,,,0.00,WUHU216HW,2013-01-17 10:53:00,
2013-01-17 05:58:00,42.1,40.8,29.45,SW,225,0.0,1.3,95,0.00,,,0.00,WUHU216HW,2013-01-17 10:58:00,
2013-01-17 06:03:00,41.9,40.6,29.45,NNW,338,1.1,1.6,95,0.00,,,0.00,WUHU216HW,2013-01-17 11:03:00,
2013-01-17 06:08:00,41.9,40.6,29.46,NW,315,1.1,1.6,95,0.00,,,0.00,WUHU216HW,2013-01-17 11:08:00,
2013-01-17 06:13:00,41.9,40.6,29.47,NNW,338,1.1,1.6,95,0.00,,,0.00,WUHU216HW,2013-01-17 11:13:00,
2013-01-17 06:18:00,41.8,40.4,29.46,NE,45,1.1,1.6,95,0.00,,,0.00,WUHU216HW,2013-01-17 11:18:00,
2013-01-17 06:23:00,41.8,40.4,29.45,ENE,68,1.1,1.1,95,0.00,,,0.00,WUHU216HW,2013-01-17 11:23:00,
2013-01-17 06:28:00,41.8,40.4,29.46,NNW,338,0.9,1.1,95,0.00,,,0.00,WUHU216HW,2013-01-17 11:28:00,
2013-01-17 06:33:00,41.8,40.4,29.46,North,0,0.0,1.1,95,0.00,,,0.00,WUHU216HW,2013-01-17 11:33:00,
2013-01-17 06:38:00,41.6,40.2,29.46,NNE,23,0.0,0.9,95,0.00,,,0.00,WUHU216HW,2013-01-17 11:38:00,
2013-01-17 06:43:00,41.6,40.2,29.45,WNW,293,0.4,0.9,95,0.00,,,0.00,WUHU216HW,2013-01-17 11:43:00,
2013-01-17 06:48:00,41.6,40.2,29.46,North,0,0.4,0.9,95,0.00,,,0.00,WUHU216HW,2013-01-17 11:48:00,
2013-01-17 06:53:00,41.4,40.1,29.47,North,0,0.0,0.4,95,0.00,,,0.00,WUHU216HW,2013-01-17 11:53:00,
2013-01-17 06:58:00,41.4,40.1,29.47,SE,135,0.7,0.9,95,0.00,,,0.00,WUHU216HW,2013-01-17 11:58:00,
2013-01-17 07:03:00,41.4,40.1,29.47,SE,135,0.0,0.9,95,0.00,,,0.00,WUHU216HW,2013-01-17 12:03:00,
2013-01-17 07:08:00,41.4,40.1,29.48,West,270,1.8,1.8,95,0.00,,,0.00,WUHU216HW,2013-01-17 12:08:00,
2013-01-17 07:13:00,41.4,40.1,29.47,WNW,293,1.1,2.0,95,0.00,,,0.00,WUHU216HW,2013-01-17 12:13:00,
2013-01-17 07:18:00,41.4,40.1,29.47,NNW,338,0.2,2.0,95,0.00,,,0.00,WUHU216HW,2013-01-17 12:18:00,
2013-01-17 07:23:00,41.4,40.1,29.48,NW,315,1.6,1.6,95,0.00,,,0.00,WUHU216HW,2013-01-17 12:23:00,
2013-01-17 07:28:00,41.6,40.2,29.48,NNW,338,2.2,2.2,95,0.00,,,0.00,WUHU216HW,2013-01-17 12:28:00,
2013-01-17 07:33:00,41.4,40.1,29.48,NNW,338,0.9,2.2,95,0.00,,,0.00,WUHU216HW,2013-01-17 12:33:00,
2013-01-17 07:38:00,41.8,40.4,29.48,NNW,338,1.8,2.2,95,0.00,,,0.00,WUHU216HW,2013-01-17 12:38:00,
2013-01-17 07:43:00,41.6,40.2,29.50,NW,315,1.1,1.8,95,0.00,,,0.00,WUHU216HW,2013-01-17 12:43:00,
2013-01-17 07:48:00,41.8,40.7,29.50,NNW,338,1.8,1.8,96,0.00,,,0.00,WUHU216HW,2013-01-17 12:48:00,
2013-01-17 07:53:00,41.8,40.4,29.50,NNE,23,2.9,2.9,95,0.00,,,0.00,WUHU216HW,2013-01-17 12:53:00,
2013-01-17 07:58:00,41.8,40.4,29.49,NE,45,2.0,2.9,95,0.00,,,0.00,WUHU216HW,2013-01-17 12:58:00,
2013-01-17 08:03:00,41.8,40.4,29.50,NE,45,4.0,4.0,95,0.00,,,0.00,WUHU216HW,2013-01-17 13:03:00,
2013-01-17 08:08:00,41.8,40.4,29.50,NE,45,6.3,6.3,95,0.00,,,0.00,WUHU216HW,2013-01-17 13:08:00,
2013-01-17 08:13:00,41.9,40.6,29.49,NE,45,3.6,6.3,95,0.00,,,0.00,WUHU216HW,2013-01-17 13:13:00,
2013-01-17 08:18:00,41.8,40.4,29.50,North,0,0.4,3.6,95,0.00,,,0.00,WUHU216HW,2013-01-17 13:18:00,
2013-01-17 08:23:00,41.8,40.4,29.50,NNW,338,1.3,3.4,95,0.00,,,0.00,WUHU216HW,2013-01-17 13:23:00,
2013-01-17 08:28:00,41.8,40.4,29.50,NNW,338,0.4,1.3,95,0.00,,,0.00,WUHU216HW,2013-01-17 13:28:00,
2013-01-17 08:33:00,41.8,40.4,29.51,NW,315,0.7,1.3,95,0.00,,,0.00,WUHU216HW,2013-01-17 13:33:00,
2013-01-17 08:38:00,41.8,40.4,29.51,North,0,0.4,0.9,95,0.00,,,0.00,WUHU216HW,2013-01-17 13:38:00,
2013-01-17 08:43:00,41.8,40.4,29.52,NNW,338,0.4,0.7,95,0.00,,,0.00,WUHU216HW,2013-01-17 13:43:00,
2013-01-17 08:48:00,41.6,40.2,29.52,North,0,1.1,1.8,95,0.00,,,0.00,WUHU216HW,2013-01-17 13:48:00,
2013-01-17 08:53:00,41.2,39.1,29.53,North,0,2.7,6.0,92,0.00,,,0.00,WUHU216HW,2013-01-17 13:53:00,
2013-01-17 08:58:00,41.2,38.3,29.53,North,0,2.0,6.0,89,0.00,,,0.00,WUHU216HW,2013-01-17 13:58:00,
2013-01-17 09:03:00,41.4,38.4,29.53,NE,45,4.7,4.7,89,0.00,,,0.00,WUHU216HW,2013-01-17 14:03:00,
2013-01-17 09:08:00,41.2,38.5,29.52,NNE,23,4.9,5.8,90,0.00,,,0.00,WUHU216HW,2013-01-17 14:08:00,
2013-01-17 09:13:00,41.2,38.3,29.53,NNE,23,5.4,6.7,89,0.00,,,0.00,WUHU216HW,2013-01-17 14:13:00,
2013-01-17 09:18:00,41.2,37.6,29.53,North,0,1.6,6.7,87,0.00,,,0.00,WUHU216HW,2013-01-17 14:18:00,
2013-01-17 09:23:00,41.2,37.6,29.54,NW,315,1.3,5.4,87,0.00,,,0.00,WUHU216HW,2013-01-17 14:23:00,
2013-01-17 09:28:00,41.2,37.0,29.54,NNW,338,1.1,1.6,85,0.00,,,0.00,WUHU216HW,2013-01-17 14:28:00,
2013-01-17 09:33:00,41.0,37.5,29.54,NW,315,1.1,1.8,87,0.00,,,0.00,WUHU216HW,2013-01-17 14:33:00,
2013-01-17 09:38:00,41.0,37.5,29.54,NNE,23,4.7,4.7,87,0.00,,,0.00,WUHU216HW,2013-01-17 14:38:00,
2013-01-17 09:43:00,41.2,36.4,29.53,NE,45,7.8,7.8,83,0.00,,,0.00,WUHU216HW,2013-01-17 14:43:00,
2013-01-17 09:48:00,41.4,36.5,29.54,NNE,23,7.2,7.8,83,0.00,,,0.00,WUHU216HW,2013-01-17 14:48:00,
2013-01-17 09:53:00,41.6,36.7,29.53,NE,45,6.9,8.7,83,0.00,,,0.00,WUHU216HW,2013-01-17 14:53:00,
2013-01-17 09:58:00,41.6,37.1,29.54,NE,45,4.7,8.7,84,0.00,,,0.00,WUHU216HW,2013-01-17 14:58:00,
2013-01-17 10:03:00,41.9,37.7,29.54,NE,45,5.1,6.9,85,0.00,,,0.00,WUHU216HW,2013-01-17 15:03:00,
2013-01-17 10:08:00,41.9,37.5,29.54,NNE,23,6.0,6.7,84,0.00,,,0.00,WUHU216HW,2013-01-17 15:08:00,
2013-01-17 10:13:00,42.1,36.0,29.54,North,0,6.3,9.2,79,0.00,,,0.00,WUHU216HW,2013-01-17 15:13:00,
2013-01-17 10:18:00,42.1,36.6,29.54,NE,45,6.3,10.7,81,0.00,,,0.00,WUHU216HW,2013-01-17 15:18:00,
2013-01-17 10:23:00,42.3,36.2,29.54,NNE,23,8.7,10.7,79,0.00,,,0.00,WUHU216HW,2013-01-17 15:23:00,
2013-01-17 10:28:00,42.5,35.7,29.54,NE,45,11.6,11.6,77,0.00,,,0.00,WUHU216HW,2013-01-17 15:28:00,
2013-01-17 10:33:00,42.5,35.7,29.54,North,0,7.2,11.6,77,0.00,,,0.00,WUHU216HW,2013-01-17 15:33:00,
2013-01-17 10:38:00,42.7,34.9,29.53,NNE,23,5.1,11.6,74,0.00,,,0.00,WUHU216HW,2013-01-17 15:38:00,
2013-01-17 10:43:00,42.7,35.3,29.52,NE,45,6.9,7.2,75,0.00,,,0.00,WUHU216HW,2013-01-17 15:43:00,
2013-01-17 10:48:00,42.8,36.5,29.52,NE,45,4.7,6.9,78,0.00,,,0.00,WUHU216HW,2013-01-17 15:48:00,
2013-01-17 10:53:00,42.8,35.1,29.53,ENE,68,4.9,6.9,74,0.00,,,0.00,WUHU216HW,2013-01-17 15:53:00,
2013-01-17 10:58:00,42.8,35.5,29.53,NNW,338,6.5,6.5,75,0.00,,,0.00,WUHU216HW,2013-01-17 15:58:00,
2013-01-17 11:03:00,43.0,35.7,29.53,NNE,23,5.1,6.5,75,0.00,,,0.00,WUHU216HW,2013-01-17 16:03:00,
2013-01-17 11:08:00,43.2,35.5,29.52,NE,45,3.4,6.5,74,0.00,,,0.00,WUHU216HW,2013-01-17 16:08:00,
2013-01-17 11:13:00,43.2,35.8,29.51,NE,45,8.7,8.7,75,0.00,,,0.00,WUHU216HW,2013-01-17 16:13:00,
2013-01-17 11:18:00,43.0,34.7,29.51,NE,45,5.1,8.7,72,0.00,,,0.00,WUHU216HW,2013-01-17 16:18:00,
2013-01-17 11:23:00,42.8,33.8,29.50,NE,45,8.3,8.7,70,0.00,,,0.00,WUHU216HW,2013-01-17 16:23:00,
2013-01-17 11:28:00,42.8,33.8,29.50,NE,45,6.3,8.7,70,0.00,,,0.00,WUHU216HW,2013-01-17 16:28:00,
2013-01-17 11:33:00,42.8,33.5,29.50,NE,45,2.9,8.3,69,0.00,,,0.00,WUHU216HW,2013-01-17 16:33:00,
2013-01-17 11:38:00,43.0,34.3,29.50,NE,45,6.3,6.3,71,0.00,,,0.00,WUHU216HW,2013-01-17 16:38:00,
2013-01-17 11:43:00,43.0,34.3,29.49,NE,45,2.7,6.3,71,0.00,,,0.00,WUHU216HW,2013-01-17 16:43:00,
2013-01-17 11:48:00,43.2,33.0,29.50,NNE,23,8.5,8.5,67,0.00,,,0.00,WUHU216HW,2013-01-17 16:48:00,
2013-01-17 11:53:00,43.2,32.2,29.51,NNE,23,6.3,8.5,65,0.00,,,0.00,WUHU216HW,2013-01-17 16:53:00,
2013-01-17 11:58:00,43.2,32.6,29.51,NE,45,2.9,8.5,66,0.00,,,0.00,WUHU216HW,2013-01-17 16:58:00,
2013-01-17 12:03:00,43.2,32.2,29.52,NNE,23,4.3,6.3,65,0.00,,,0.00,WUHU216HW,2013-01-17 17:03:00,
2013-01-17 12:08:00,43.4,33.6,29.51,NE,45,4.0,4.3,68,0.00,,,0.00,WUHU216HW,2013-01-17 17:08:00,
2013-01-17 12:13:00,43.6,33.0,29.51,NNE,23,2.7,5.1,66,0.00,,,0.00,WUHU216HW,2013-01-17 17:13:00,
2013-01-17 12:18:00,43.4,32.8,29.50,NNE,23,1.8,5.6,66,0.00,,,0.00,WUHU216HW,2013-01-17 17:18:00,
2013-01-17 12:23:00,43.4,32.0,29.50,North,0,6.3,6.3,64,0.00,,,0.00,WUHU216HW,2013-01-17 17:23:00,
2013-01-17 12:28:00,43.2,33.4,29.49,NE,45,5.8,7.4,68,0.00,,,0.00,WUHU216HW,2013-01-17 17:28:00,
2013-01-17 12:33:00,43.0,32.1,29.49,North,0,8.1,8.1,65,0.00,,,0.00,WUHU216HW,2013-01-17 17:33:00,
2013-01-17 12:38:00,42.8,31.5,29.49,NNE,23,6.3,8.1,64,0.00,,,0.00,WUHU216HW,2013-01-17 17:38:00,
2013-01-17 12:43:00,42.8,31.1,29.49,North,0,9.2,9.4,63,0.00,,,0.00,WUHU216HW,2013-01-17 17:43:00,
2013-01-17 12:48:00,42.7,31.3,29.49,NNE,23,5.4,10.5,64,0.00,,,0.00,WUHU216HW,2013-01-17 17:48:00,
2013-01-17 12:53:00,42.7,31.7,29.50,NNE,23,7.6,10.5,65,0.00,,,0.00,WUHU216HW,2013-01-17 17:53:00,
2013-01-17 12:58:00,42.7,31.3,29.49,North,0,5.4,8.5,64,0.00,,,0.00,WUHU216HW,2013-01-17 17:58:00,
2013-01-17 13:03:00,42.7,31.3,29.49,NE,45,12.8,12.8,64,0.00,,,0.00,WUHU216HW,2013-01-17 18:03:00,
2013-01-17 13:08:00,42.7,30.9,29.49,NNE,23,9.6,12.8,63,0.00,,,0.00,WUHU216HW,2013-01-17 18:08:00,
2013-01-17 13:13:00,42.5,31.2,29.49,North,0,6.5,12.1,64,0.00,,,0.00,WUHU216HW,2013-01-17 18:13:00,
2013-01-17 13:18:00,42.5,31.5,29.49,North,0,8.1,9.6,65,0.00,,,0.00,WUHU216HW,2013-01-17 18:18:00,
2013-01-17 13:23:00,42.3,30.6,29.50,NE,45,10.5,10.5,63,0.00,,,0.00,WUHU216HW,2013-01-17 18:23:00,
2013-01-17 13:28:00,42.1,30.8,29.49,NE,45,7.6,10.5,64,0.00,,,0.00,WUHU216HW,2013-01-17 18:28:00,
2013-01-17 13:33:00,42.1,30.4,29.48,NNE,23,9.4,11.4,63,0.00,,,0.00,WUHU216HW,2013-01-17 18:33:00,
2013-01-17 13:38:00,42.1,30.8,29.48,NE,45,10.5,11.4,64,0.00,,,0.00,WUHU216HW,2013-01-17 18:38:00,
2013-01-17 13:43:00,42.1,31.1,29.47,NNE,23,7.4,10.5,65,0.00,,,0.00,WUHU216HW,2013-01-17 18:43:00,
2013-01-17 13:48:00,41.9,31.8,29.47,NE,45,6.7,10.5,67,0.00,,,0.00,WUHU216HW,2013-01-17 18:48:00,
2013-01-17 13:53:00,41.9,31.0,29.48,NE,45,6.7,9.2,65,0.00,,,0.00,WUHU216HW,2013-01-17 18:53:00,
2013-01-17 13:58:00,42.1,31.6,29.47,NE,45,1.8,6.7,66,0.00,,,0.00,WUHU216HW,2013-01-17 18:58:00,
2013-01-17 14:03:00,42.1,31.6,29.47,NE,45,6.3,6.7,66,0.00,,,0.00,WUHU216HW,2013-01-17 19:03:00,
2013-01-17 14:08:00,42.1,31.1,29.47,North,0,7.4,7.4,65,0.00,,,0.00,WUHU216HW,2013-01-17 19:08:00,
2013-01-17 14:13:00,42.1,30.4,29.48,NE,45,5.4,7.4,63,0.00,,,0.00,WUHU216HW,2013-01-17 19:13:00,
2013-01-17 14:18:00,42.1,31.1,29.48,NNE,23,4.0,7.4,65,0.00,,,0.00,WUHU216HW,2013-01-17 19:18:00,
2013-01-17 14:23:00,42.1,31.1,29.47,NNE,23,4.9,9.4,65,0.00,,,0.00,WUHU216HW,2013-01-17 19:23:00,
2013-01-17 14:28:00,41.9,31.0,29.47,NE,45,9.2,9.4,65,0.00,,,0.00,WUHU216HW,2013-01-17 19:28:00,
2013-01-17 14:33:00,42.1,30.8,29.48,NNE,23,7.2,10.5,64,0.00,,,0.00,WUHU216HW,2013-01-17 19:33:00,
2013-01-17 14:38:00,41.9,31.4,29.48,NNE,23,6.9,10.5,66,0.00,,,0.00,WUHU216HW,2013-01-17 19:38:00,
2013-01-17 14:43:00,41.9,31.8,29.49,NE,45,5.4,9.2,67,0.00,,,0.00,WUHU216HW,2013-01-17 19:43:00,
2013-01-17 14:48:00,41.9,31.8,29.49,NE,45,3.1,6.9,67,0.00,,,0.00,WUHU216HW,2013-01-17 19:48:00,
2013-01-17 14:53:00,41.8,32.0,29.49,East,90,1.3,5.4,68,0.00,,,0.00,WUHU216HW,2013-01-17 19:53:00,
2013-01-17 14:58:00,41.6,31.8,29.49,East,90,1.6,3.1,68,0.00,,,0.00,WUHU216HW,2013-01-17 19:58:00,
2013-01-17 15:03:00,41.4,32.1,29.49,East,90,2.0,2.7,69,0.00,,,0.00,WUHU216HW,2013-01-17 20:03:00,
2013-01-17 15:08:00,41.4,32.1,29.49,East,90,0.7,2.7,69,0.00,,,0.00,WUHU216HW,2013-01-17 20:08:00,
2013-01-17 15:13:00,41.0,32.0,29.49,NNE,23,4.9,4.9,70,0.00,,,0.00,WUHU216HW,2013-01-17 20:13:00,
2013-01-17 15:18:00,41.0,32.0,29.49,North,0,2.2,4.9,70,0.00,,,0.00,WUHU216HW,2013-01-17 20:18:00,
2013-01-17 15:23:00,40.7,32.1,29.50,NNE,23,8.7,9.8,71,0.00,,,0.00,WUHU216HW,2013-01-17 20:23:00,
2013-01-17 15:28:00,40.7,32.1,29.50,North,0,5.1,9.8,71,0.00,,,0.00,WUHU216HW,2013-01-17 20:28:00,
2013-01-17 15:33:00,40.5,32.1,29.52,NNW,338,0.4,5.1,72,0.00,,,0.00,WUHU216HW,2013-01-17 20:33:00,
2013-01-17 15:38:00,40.3,32.3,29.50,North,0,10.1,10.1,73,0.00,,,0.00,WUHU216HW,2013-01-17 20:38:00,
2013-01-17 15:43:00,40.1,32.5,29.52,North,0,2.2,10.1,74,0.00,,,0.00,WUHU216HW,2013-01-17 20:43:00,
2013-01-17 15:48:00,40.0,32.3,29.52,North,0,1.3,3.1,74,0.00,,,0.00,WUHU216HW,2013-01-17 20:48:00,
2013-01-17 15:53:00,40.0,32.3,29.51,NNE,23,2.5,2.5,74,0.00,,,0.00,WUHU216HW,2013-01-17 20:53:00,
2013-01-17 15:58:00,39.8,32.5,29.51,North,0,1.6,2.7,75,0.00,,,0.00,WUHU216HW,2013-01-17 20:58:00,
2013-01-17 16:03:00,39.6,32.3,29.51,North,0,2.0,2.7,75,0.00,,,0.00,WUHU216HW,2013-01-17 21:03:00,
2013-01-17 16:08:00,39.6,32.7,29.51,North,0,1.8,8.7,76,0.00,,,0.00,WUHU216HW,2013-01-17 21:08:00,
2013-01-17 16:13:00,39.6,32.7,29.50,NE,45,8.1,8.7,76,0.00,,,0.00,WUHU216HW,2013-01-17 21:13:00,
2013-01-17 16:18:00,39.4,32.5,29.51,NNW,338,1.6,8.1,76,0.00,,,0.00,WUHU216HW,2013-01-17 21:18:00,
2013-01-17 16:23:00,39.4,32.8,29.51,North,0,1.8,8.1,77,0.00,,,0.00,WUHU216HW,2013-01-17 21:23:00,
2013-01-17 16:28:00,39.4,32.5,29.50,NNW,338,1.3,6.3,76,0.00,,,0.00,WUHU216HW,2013-01-17 21:28:00,
2013-01-17 16:33:00,39.2,32.7,29.51,North,0,0.4,6.3,77,0.00,,,0.00,WUHU216HW,2013-01-17 21:33:00,
2013-01-17 16:38:00,39.2,33.3,29.51,NNW,338,3.4,3.4,79,0.00,,,0.00,WUHU216HW,2013-01-17 21:38:00,
2013-01-17 16:43:00,39.2,33.7,29.52,NW,315,4.0,4.0,80,0.00,,,0.00,WUHU216HW,2013-01-17 21:43:00,
2013-01-17 16:48:00,39.2,33.3,29.51,NNW,338,1.8,4.0,79,0.00,,,0.00,WUHU216HW,2013-01-17 21:48:00,
2013-01-17 16:53:00,39.1,33.1,29.51,North,0,3.1,3.8,79,0.00,,,0.00,WUHU216HW,2013-01-17 21:53:00,
2013-01-17 16:58:00,38.9,32.9,29.51,North,0,1.8,3.1,79,0.00,,,0.00,WUHU216HW,2013-01-17 21:58:00,
2013-01-17 17:03:00,38.9,33.3,29.52,NNE,23,2.5,4.0,80,0.00,,,0.00,WUHU216HW,2013-01-17 22:03:00,
2013-01-17 17:08:00,38.7,32.8,29.53,North,0,2.0,4.0,79,0.00,,,0.00,WUHU216HW,2013-01-17 22:08:00,
2013-01-17 17:13:00,38.7,33.4,29.52,NNW,338,2.2,2.9,81,0.00,,,0.00,WUHU216HW,2013-01-17 22:13:00,
2013-01-17 17:18:00,38.5,32.6,29.52,NNW,338,0.7,2.9,79,0.00,,,0.00,WUHU216HW,2013-01-17 22:18:00,
2013-01-17 17:23:00,38.3,32.1,29.51,North,0,2.9,5.4,78,0.00,,,0.00,WUHU216HW,2013-01-17 22:23:00,
2013-01-17 17:28:00,38.2,32.2,29.51,North,0,6.3,6.3,79,0.00,,,0.00,WUHU216HW,2013-01-17 22:28:00,
2013-01-17 17:33:00,38.2,32.2,29.51,NNE,23,2.0,6.3,79,0.00,,,0.00,WUHU216HW,2013-01-17 22:33:00,
2013-01-17 17:38:00,38.0,32.0,29.52,NNW,338,2.0,4.7,79,0.00,,,0.00,WUHU216HW,2013-01-17 22:38:00,
2013-01-17 17:43:00,38.0,32.9,29.54,NW,315,1.1,2.9,82,0.00,,,0.00,WUHU216HW,2013-01-17 22:43:00,
2013-01-17 17:48:00,38.0,32.9,29.53,NNW,338,1.1,2.9,82,0.00,,,0.00,WUHU216HW,2013-01-17 22:48:00,
2013-01-17 17:53:00,38.0,32.4,29.53,NNW,338,0.4,2.5,80,0.00,,,0.00,WUHU216HW,2013-01-17 22:53:00,
2013-01-17 17:58:00,37.8,32.2,29.52,NE,45,0.9,1.1,80,0.00,,,0.00,WUHU216HW,2013-01-17 22:58:00,
2013-01-17 18:03:00,37.8,32.5,29.53,SSW,203,0.0,1.1,81,0.00,,,0.00,WUHU216HW,2013-01-17 23:03:00,
2013-01-17 18:08:00,37.8,32.5,29.51,SW,225,1.1,1.1,81,0.00,,,0.00,WUHU216HW,2013-01-17 23:08:00,
2013-01-17 18:13:00,37.8,32.8,29.51,WSW,248,2.9,2.9,82,0.00,,,0.00,WUHU216HW,2013-01-17 23:13:00,
2013-01-17 18:18:00,37.8,33.1,29.54,West,270,6.3,6.9,83,0.00,,,0.00,WUHU216HW,2013-01-17 23:18:00,
2013-01-17 18:23:00,37.8,33.4,29.54,WNW,293,4.0,6.9,84,0.00,,,0.00,WUHU216HW,2013-01-17 23:23:00,
2013-01-17 18:28:00,37.8,33.1,29.56,West,270,4.7,6.5,83,0.00,,,0.00,WUHU216HW,2013-01-17 23:28:00,
2013-01-17 18:33:00,38.0,33.6,29.54,WNW,293,2.2,4.7,84,0.00,,,0.00,WUHU216HW,2013-01-17 23:33:00,
2013-01-17 18:38:00,38.0,33.6,29.53,North,0,0.2,4.7,84,0.00,,,0.00,WUHU216HW,2013-01-17 23:38:00,
2013-01-17 18:43:00,37.8,33.4,29.53,NW,315,2.5,3.4,84,0.00,,,0.00,WUHU216HW,2013-01-17 23:43:00,
2013-01-17 18:48:00,37.8,32.8,29.53,NW,315,0.4,3.4,82,0.00,,,0.00,WUHU216HW,2013-01-17 23:48:00,
2013-01-17 18:53:00,37.6,32.6,29.52,NNW,338,0.0,1.8,82,0.00,,,0.00,WUHU216HW,2013-01-17 23:53:00,
2013-01-17 18:58:00,37.6,33.2,29.52,NNW,338,2.0,2.0,84,0.00,,,0.00,WUHU216HW,2013-01-17 23:58:00,
2013-01-17 19:03:00,37.6,33.5,29.51,NNW,338,2.5,2.5,85,0.00,,,0.00,WUHU216HW,2013-01-18 00:03:00,
2013-01-17 19:08:00,37.4,32.8,29.52,North,0,2.0,4.0,83,0.00,,,0.00,WUHU216HW,2013-01-18 00:08:00,
2013-01-17 19:13:00,37.3,32.2,29.52,North,0,4.3,7.6,82,0.00,,,0.00,WUHU216HW,2013-01-18 00:13:00,
2013-01-17 19:18:00,37.1,32.0,29.53,North,0,3.6,7.6,82,0.00,,,0.00,WUHU216HW,2013-01-18 00:18:00,
2013-01-17 19:23:00,37.3,32.6,29.53,North,0,1.6,5.4,83,0.00,,,0.00,WUHU216HW,2013-01-18 00:23:00,
2013-01-17 19:28:00,37.3,32.2,29.53,NNE,23,5.4,6.0,82,0.00,,,0.00,WUHU216HW,2013-01-18 00:28:00,
2013-01-17 19:33:00,37.1,31.8,29.53,North,0,1.8,8.7,81,0.00,,,0.00,WUHU216HW,2013-01-18 00:33:00,
2013-01-17 19:38:00,37.1,31.8,29.52,North,0,3.1,8.7,81,0.00,,,0.00,WUHU216HW,2013-01-18 00:38:00,
2013-01-17 19:43:00,36.9,31.6,29.53,NNE,23,6.9,8.7,81,0.00,,,0.00,WUHU216HW,2013-01-18 00:43:00,
2013-01-17 19:48:00,36.7,31.7,29.53,North,0,9.2,9.2,82,0.00,,,0.00,WUHU216HW,2013-01-18 00:48:00,
2013-01-17 19:53:00,36.5,31.5,29.52,NNE,23,2.9,9.2,82,0.00,,,0.00,WUHU216HW,2013-01-18 00:53:00,
2013-01-17 19:58:00,36.5,31.5,29.53,North,0,0.9,7.4,82,0.00,,,0.00,WUHU216HW,2013-01-18 00:58:00,
2013-01-17 20:03:00,36.5,31.5,29.54,NW,315,2.0,6.3,82,0.00,,,0.00,WUHU216HW,2013-01-18 01:03:00,
2013-01-17 20:08:00,36.7,32.6,29.53,NNW,338,2.9,2.9,85,0.00,,,0.00,WUHU216HW,2013-01-18 01:08:00,
2013-01-17 20:13:00,36.5,31.5,29.52,North,0,1.8,3.4,82,0.00,,,0.00,WUHU216HW,2013-01-18 01:13:00,
2013-01-17 20:18:00,36.4,31.3,29.52,North,0,0.7,6.0,82,0.00,,,0.00,WUHU216HW,2013-01-18 01:18:00,
2013-01-17 20:23:00,36.4,31.3,29.52,NNE,23,2.7,6.0,82,0.00,,,0.00,WUHU216HW,2013-01-18 01:23:00,
2013-01-17 20:28:00,36.4,32.0,29.52,NNW,338,2.0,4.0,84,0.00,,,0.00,WUHU216HW,2013-01-18 01:28:00,
2013-01-17 20:33:00,36.4,32.0,29.52,NNW,338,1.8,3.8,84,0.00,,,0.00,WUHU216HW,2013-01-18 01:33:00,
2013-01-17 20:38:00,36.4,32.2,29.53,NW,315,0.9,4.0,85,0.00,,,0.00,WUHU216HW,2013-01-18 01:38:00,
2013-01-17 20:43:00,36.4,32.0,29.54,NW,315,2.7,4.0,84,0.00,,,0.00,WUHU216HW,2013-01-18 01:43:00,
2013-01-17 20:48:00,36.4,32.0,29.53,NNW,338,3.6,4.0,84,0.00,,,0.00,WUHU216HW,2013-01-18 01:48:00,
2013-01-17 20:53:00,36.4,31.7,29.53,North,0,4.0,4.0,83,0.00,,,0.00,WUHU216HW,2013-01-18 01:53:00,
2013-01-17 20:58:00,36.2,31.5,29.52,North,0,1.8,4.0,83,0.00,,,0.00,WUHU216HW,2013-01-18 01:58:00,
2013-01-17 21:03:00,36.2,31.1,29.52,NW,315,1.8,4.7,82,0.00,,,0.00,WUHU216HW,2013-01-18 02:03:00,
2013-01-17 21:08:00,36.0,31.3,29.53,NNW,338,1.1,4.7,83,0.00,,,0.00,WUHU216HW,2013-01-18 02:08:00,
2013-01-17 21:13:00,36.0,31.0,29.52,North,0,4.0,4.3,82,0.00,,,0.00,WUHU216HW,2013-01-18 02:13:00,
2013-01-17 21:18:00,36.0,31.0,29.52,NNE,23,7.6,7.6,82,0.00,,,0.00,WUHU216HW,2013-01-18 02:18:00,
2013-01-17 21:23:00,36.0,31.0,29.51,NNE,23,5.1,11.0,82,0.00,,,0.00,WUHU216HW,2013-01-18 02:23:00,
2013-01-17 21:28:00,36.0,31.0,29.50,NE,45,9.8,11.0,82,0.00,,,0.00,WUHU216HW,2013-01-18 02:28:00,
2013-01-17 21:33:00,36.0,31.0,29.50,North,0,5.8,9.8,82,0.00,,,0.00,WUHU216HW,2013-01-18 02:33:00,
2013-01-17 21:38:00,35.8,31.2,29.50,NNW,338,4.0,8.5,83,0.00,,,0.00,WUHU216HW,2013-01-18 02:38:00,
2013-01-17 21:43:00,35.8,31.4,29.51,NNW,338,1.8,6.5,84,0.00,,,0.00,WUHU216HW,2013-01-18 02:43:00,
2013-01-17 21:48:00,35.8,31.2,29.51,NNW,338,2.2,4.5,83,0.00,,,0.00,WUHU216HW,2013-01-18 02:48:00,
2013-01-17 21:53:00,35.8,32.0,29.52,NW,315,1.1,3.4,86,0.00,,,0.00,WUHU216HW,2013-01-18 02:53:00,
2013-01-17 21:58:00,35.8,31.7,29.53,NW,315,0.9,3.4,85,0.00,,,0.00,WUHU216HW,2013-01-18 02:58:00,
2013-01-17 22:03:00,35.8,31.4,29.52,North,0,1.1,3.6,84,0.00,,,0.00,WUHU216HW,2013-01-18 03:03:00,
2013-01-17 22:08:00,35.8,31.4,29.54,North,0,0.4,3.6,84,0.00,,,0.00,WUHU216HW,2013-01-18 03:08:00,
2013-01-17 22:13:00,35.6,31.0,29.54,NNE,23,5.1,5.1,83,0.00,,,0.00,WUHU216HW,2013-01-18 03:13:00,
2013-01-17 22:18:00,35.5,30.8,29.53,North,0,2.2,5.1,83,0.00,,,0.00,WUHU216HW,2013-01-18 03:18:00,
2013-01-17 22:23:00,35.5,30.8,29.53,North,0,4.0,4.9,83,0.00,,,0.00,WUHU216HW,2013-01-18 03:23:00,
2013-01-17 22:28:00,35.5,30.8,29.54,North,0,1.1,4.7,83,0.00,,,0.00,WUHU216HW,2013-01-18 03:28:00,
2013-01-17 22:33:00,35.5,31.1,29.53,NNW,338,1.1,4.0,84,0.00,,,0.00,WUHU216HW,2013-01-18 03:33:00,
2013-01-17 22:38:00,35.5,31.1,29.52,NNE,23,1.3,1.6,84,0.00,,,0.00,WUHU216HW,2013-01-18 03:38:00,
2013-01-17 22:43:00,35.3,30.9,29.52,NE,45,0.9,1.6,84,0.00,,,0.00,WUHU216HW,2013-01-18 03:43:00,
2013-01-17 22:48:00,35.1,30.7,29.52,NE,45,2.5,3.4,84,0.00,,,0.00,WUHU216HW,2013-01-18 03:48:00,
2013-01-17 22:53:00,35.1,30.7,29.52,East,90,1.8,3.4,84,0.00,,,0.00,WUHU216HW,2013-01-18 03:53:00,
2013-01-17 22:58:00,35.1,30.7,29.53,ESE,113,0.0,2.5,84,0.00,,,0.00,WUHU216HW,2013-01-18 03:58:00,
2013-01-17 23:03:00,35.1,30.7,29.48,NE,45,7.6,7.6,84,0.00,,,0.00,WUHU216HW,2013-01-18 04:03:00,
2013-01-17 23:08:00,34.9,30.5,29.49,ENE,68,4.7,7.6,84,0.00,,,0.00,WUHU216HW,2013-01-18 04:08:00,
2013-01-17 23:14:00,34.9,30.5,29.48,ENE,68,1.8,6.9,84,0.00,,,0.00,WUHU216HW,2013-01-18 04:14:00,
2013-01-17 23:19:00,34.9,30.5,29.51,WSW,248,1.8,5.8,84,0.00,,,0.00,WUHU216HW,2013-01-18 04:19:00,
2013-01-17 23:24:00,34.9,30.5,29.52,WSW,248,1.8,2.0,84,0.00,,,0.00,WUHU216HW,2013-01-18 04:24:00,
2013-01-17 23:29:00,35.1,31.0,29.53,SSW,203,2.5,2.5,85,0.00,,,0.00,WUHU216HW,2013-01-18 04:29:00,
2013-01-17 23:34:00,35.1,31.0,29.53,SW,225,2.2,2.5,85,0.00,,,0.00,WUHU216HW,2013-01-18 04:34:00,
2013-01-17 23:39:00,35.1,31.0,29.53,SW,225,0.9,2.2,85,0.00,,,0.00,WUHU216HW,2013-01-18 04:39:00,
2013-01-17 23:44:00,35.1,31.0,29.54,WSW,248,3.1,4.0,85,0.00,,,0.00,WUHU216HW,2013-01-18 04:44:00,
2013-01-17 23:48:00,35.3,31.4,29.54,SSW,203,1.8,4.0,86,0.00,,,0.00,WUHU216HW,2013-01-18 04:48:00,
2013-01-17 23:53:00,35.3,31.4,29.54,SW,225,2.5,3.4,86,0.00,,,0.00,WUHU216HW,2013-01-18 04:53:00,
2013-01-17 23:58:00,35.3,31.4,29.54,SE,135,0.7,2.5,86,0.00,,,0.00,WUHU216HW,2013-01-18 04:58:00,